| time (UTC) | temp F | wind direction | speed knots | gust knots | rain 1hr in | rain 24hr in | rain mn in | humidity % | barometer mb |
| 20260906230929 | 66 | 268 | 8.7 | 18.2 | 0.00 | 0.00 | 0.00 | 70 | 1014.3 |
| 20260906230436 | 66 | 282 | 11.3 | 20.0 | 0.00 | 0.00 | 0.00 | 71 | 1014.4 |
| 20260906225918 | 66 | 274 | 13.9 | 18.2 | 0.00 | 0.00 | 0.00 | 70 | 1014.3 |
| 20260906225425 | 66 | 271 | 7.0 | 16.5 | 0.00 | 0.00 | 0.00 | 71 | 1014.4 |
| 20260906224930 | 66 | 308 | 9.6 | 19.1 | 0.00 | 0.00 | 0.00 | 71 | 1014.5 |
| 20260906224419 | 66 | 271 | 10.4 | 19.1 | 0.00 | 0.00 | 0.00 | 71 | 1014.6 |
| 20260906223925 | 66 | 280 | 9.6 | 17.4 | 0.00 | 0.00 | 0.00 | 70 | 1014.6 |
| 20260906223431 | 66 | 295 | 8.7 | 16.5 | 0.00 | 0.00 | 0.00 | 70 | 1014.6 |
| 20260906222937 | 65 | 275 | 9.6 | 20.9 | 0.00 | 0.00 | 0.00 | 71 | 1014.7 |
| 20260906222449 | 65 | 297 | 13.0 | 20.9 | 0.00 | 0.00 | 0.00 | 70 | 1014.7 |
| 20260906221935 | 65 | 290 | 13.9 | 26.1 | 0.00 | 0.00 | 0.00 | 70 | 1014.7 |
| 20260906221421 | 66 | 280 | 15.6 | 26.1 | 0.00 | 0.00 | 0.00 | 70 | 1014.8 |
| 20260906220928 | 67 | 252 | 10.4 | 22.6 | 0.00 | 0.00 | 0.00 | 69 | 1014.8 |
| 20260906220435 | 67 | 279 | 10.4 | 22.6 | 0.00 | 0.00 | 0.00 | 69 | 1014.8 |
| 20260906215921 | 67 | 222 | 9.6 | 19.1 | 0.00 | 0.00 | 0.00 | 69 | 1014.7 |
| 20260906215426 | 66 | 252 | 9.6 | 19.1 | 0.00 | 0.00 | 0.00 | 69 | 1014.7 |
| 20260906214934 | 66 | 229 | 9.6 | 20.0 | 0.00 | 0.00 | 0.00 | 69 | 1014.8 |
| 20260906214418 | 66 | 265 | 9.6 | 20.0 | 0.00 | 0.00 | 0.00 | 69 | 1014.8 |
| 20260906213926 | 66 | 235 | 11.3 | 17.4 | 0.00 | 0.00 | 0.00 | 69 | 1014.8 |
| 20260906213431 | 67 | 280 | 7.8 | 19.1 | 0.00 | 0.00 | 0.00 | 70 | 1014.7 |
| 20260906212917 | 66 | 235 | 8.7 | 19.1 | 0.00 | 0.00 | 0.00 | 70 | 1014.8 |
| 20260906212423 | 66 | 216 | 10.4 | 20.0 | 0.00 | 0.00 | 0.00 | 70 | 1014.6 |
| 20260906211931 | 66 | 282 | 11.3 | 24.3 | 0.00 | 0.00 | 0.00 | 69 | 1014.7 |
| 20260906211436 | 66 | 278 | 11.3 | 24.3 | 0.00 | 0.00 | 0.00 | 70 | 1014.7 |
| 20260906210939 | 66 | 270 | 13.0 | 21.7 | 0.00 | 0.00 | 0.00 | 70 | 1014.8 |
| 20260906210425 | 65 | 224 | 11.3 | 20.9 | 0.00 | 0.00 | 0.00 | 70 | 1014.7 |
| 20260906205930 | 66 | 277 | 11.3 | 20.0 | 0.00 | 0.00 | 0.00 | 70 | 1014.8 |
| 20260906205416 | 66 | 298 | 11.3 | 20.9 | 0.00 | 0.00 | 0.00 | 69 | 1014.8 |
| 20260906204924 | 66 | 276 | 10.4 | 20.9 | 0.00 | 0.00 | 0.00 | 70 | 1014.8 |
| 20260906204430 | 66 | 248 | 9.6 | 20.0 | 0.00 | 0.00 | 0.00 | 70 | 1014.8 |
| 20260906203917 | 67 | 280 | 7.0 | 15.6 | 0.00 | 0.00 | 0.00 | 70 | 1014.9 |
| 20260906203422 | 66 | 245 | 5.2 | 15.6 | 0.00 | 0.00 | 0.00 | 71 | 1014.8 |
| 20260906202923 | 66 | 255 | 6.1 | 13.0 | 0.00 | 0.00 | 0.00 | 71 | 1015.0 |
| 20260906202427 | 66 | 249 | 6.1 | 17.4 | 0.00 | 0.00 | 0.00 | 71 | 1014.9 |
| 20260906201934 | 66 | 325 | 5.2 | 17.4 | 0.00 | 0.00 | 0.00 | 72 | 1014.9 |
| 20260906201451 | 65 | 291 | 6.1 | 15.6 | 0.00 | 0.00 | 0.00 | 71 | 1014.8 |
| 20260906200917 | 66 | 235 | 7.0 | 15.6 | 0.00 | 0.00 | 0.00 | 71 | 1014.8 |
| 20260906200443 | 66 | 182 | 6.1 | 13.9 | 0.00 | 0.00 | 0.00 | 72 | 1014.9 |
| 20260906195925 | 65 | 235 | 9.6 | 14.8 | 0.00 | 0.00 | 0.00 | 72 | 1015.0 |
| 20260906195431 | 65 | 251 | 7.0 | 15.6 | 0.00 | 0.00 | 0.00 | 72 | 1015.0 |
| 20260906194936 | 65 | 313 | 8.7 | 15.6 | 0.00 | 0.00 | 0.00 | 72 | 1015.0 |
| 20260906194423 | 65 | 283 | 6.1 | 13.0 | 0.00 | 0.00 | 0.00 | 73 | 1015.0 |
| 20260906193927 | 64 | 164 | 5.2 | 14.8 | 0.00 | 0.00 | 0.00 | 74 | 1015.2 |
| 20260906193433 | 64 | 311 | 7.0 | 15.6 | 0.00 | 0.00 | 0.00 | 74 | 1015.1 |
| 20260906192918 | 64 | 329 | 8.7 | 15.6 | 0.00 | 0.00 | 0.00 | 74 | 1015.2 |
| 20260906192425 | 64 | 272 | 8.7 | 14.8 | 0.00 | 0.00 | 0.00 | 74 | 1015.2 |
| 20260906191929 | 64 | 280 | 4.3 | 13.9 | 0.00 | 0.00 | 0.00 | 74 | 1015.2 |
| 20260906191436 | 64 | 273 | 7.8 | 13.9 | 0.00 | 0.00 | 0.00 | 74 | 1015.2 |
| 20260906190921 | 64 | 265 | 6.1 | 14.8 | 0.00 | 0.00 | 0.00 | 74 | 1015.4 |
| 20260906190428 | 64 | 294 | 6.1 | 12.2 | 0.00 | 0.00 | 0.00 | 74 | 1015.3 |
| 20260906185928 | 64 | 278 | 7.8 | 12.2 | 0.00 | 0.00 | 0.00 | 73 | 1015.4 |
| 20260906185437 | 64 | 285 | 6.1 | 11.3 | 0.00 | 0.00 | 0.00 | 74 | 1015.5 |
| 20260906184931 | 64 | 280 | 5.2 | 10.4 | 0.00 | 0.00 | 0.00 | 74 | 1015.5 |
| 20260906184416 | 64 | 200 | 3.5 | 10.4 | 0.00 | 0.00 | 0.00 | 75 | 1015.5 |
| 20260906183921 | 63 | 261 | 6.1 | 10.4 | 0.00 | 0.00 | 0.00 | 74 | 1015.5 |
| 20260906183427 | 63 | 222 | 6.1 | 10.4 | 0.00 | 0.00 | 0.00 | 74 | 1015.5 |
| 20260906182929 | 63 | 246 | 5.2 | 10.4 | 0.00 | 0.00 | 0.00 | 75 | 1015.4 |
| 20260906182434 | 63 | 238 | 2.6 | 8.7 | 0.00 | 0.00 | 0.00 | 76 | 1015.5 |
| 20260906181920 | 63 | 311 | 4.3 | 12.2 | 0.00 | 0.00 | 0.00 | 75 | 1015.5 |
| 20260906181422 | 62 | 244 | 6.1 | 12.2 | 0.00 | 0.00 | 0.00 | 75 | 1015.4 |
| 20260906180924 | 63 | 257 | 7.8 | 11.3 | 0.00 | 0.00 | 0.00 | 75 | 1015.4 |
| 20260906180428 | 63 | 276 | 6.1 | 13.0 | 0.00 | 0.00 | 0.00 | 75 | 1015.4 |
| 20260906175932 | 63 | 252 | 4.3 | 13.0 | 0.00 | 0.00 | 0.00 | 75 | 1015.4 |
| 20260906175417 | 63 | 275 | 5.2 | 11.3 | 0.00 | 0.00 | 0.00 | 75 | 1015.5 |
| 20260906174923 | 63 | 240 | 6.1 | 11.3 | 0.00 | 0.00 | 0.00 | 75 | 1015.4 |
| 20260906174429 | 63 | 280 | 5.2 | 11.3 | 0.00 | 0.00 | 0.00 | 74 | 1015.4 |
| 20260906173931 | 63 | 309 | 4.3 | 9.6 | 0.00 | 0.00 | 0.00 | 75 | 1015.5 |
| 20260906173431 | 63 | 311 | 4.3 | 9.6 | 0.00 | 0.00 | 0.00 | 75 | 1015.5 |
| 20260906172924 | 63 | 284 | 1.7 | 8.7 | 0.00 | 0.00 | 0.00 | 76 | 1015.4 |
| 20260906172432 | 63 | 268 | 5.2 | 11.3 | 0.00 | 0.00 | 0.00 | 76 | 1015.4 |
| 20260906171937 | 63 | 287 | 5.2 | 11.3 | 0.00 | 0.00 | 0.00 | 77 | 1015.4 |
| 20260906171453 | 63 | 270 | 4.3 | 9.6 | 0.00 | 0.00 | 0.00 | 77 | 1015.4 |
| 20260906170917 | 63 | 217 | 5.2 | 11.3 | 0.00 | 0.00 | 0.00 | 76 | 1015.4 |
| 20260906170438 | 63 | 278 | 6.1 | 11.3 | 0.00 | 0.00 | 0.00 | 76 | 1015.3 |
| 20260906165950 | 63 | 251 | 5.2 | 9.6 | 0.00 | 0.00 | 0.00 | 77 | 1015.4 |
| 20260906165433 | 63 | 221 | 3.5 | 12.2 | 0.00 | 0.00 | 0.00 | 77 | 1015.4 |
| 20260906164920 | 63 | 242 | 3.5 | 12.2 | 0.00 | 0.00 | 0.00 | 77 | 1015.3 |
| 20260906164424 | 63 | 268 | 3.5 | 13.0 | 0.00 | 0.00 | 0.00 | 77 | 1015.2 |
| 20260906163932 | 63 | 177 | 7.0 | 13.0 | 0.00 | 0.00 | 0.00 | 76 | 1015.3 |
| 20260906163417 | 63 | 226 | 4.3 | 7.0 | 0.00 | 0.00 | 0.00 | 77 | 1015.2 |
| 20260906162921 | 63 | 295 | 1.7 | 7.8 | 0.00 | 0.00 | 0.00 | 77 | 1015.1 |
| 20260906162443 | 63 | 339 | 3.5 | 7.8 | 0.00 | 0.00 | 0.00 | 78 | 1015.0 |
| 20260906161928 | 63 | 206 | 3.5 | 7.8 | 0.00 | 0.00 | 0.00 | 78 | 1015.1 |
| 20260906161434 | 62 | 52 | 2.6 | 7.8 | 0.00 | 0.00 | 0.00 | 79 | 1015.2 |
| 20260906160917 | 62 | 292 | 2.6 | 7.0 | 0.00 | 0.00 | 0.00 | 79 | 1015.3 |
| 20260906160419 | 62 | 334 | 2.6 | 7.0 | 0.00 | 0.00 | 0.00 | 80 | 1015.3 |
| 20260906155921 | 62 | 33 | 2.6 | 7.8 | 0.00 | 0.00 | 0.00 | 80 | 1015.4 |
| 20260906155420 | 61 | 256 | 3.5 | 10.4 | 0.00 | 0.00 | 0.00 | 80 | 1015.4 |
| 20260906154955 | 61 | 313 | 3.5 | 9.6 | 0.00 | 0.00 | 0.00 | 81 | 1015.4 |
| 20260906154418 | 61 | 201 | 4.3 | 10.4 | 0.00 | 0.00 | 0.00 | 81 | 1015.4 |
| 20260906153922 | 61 | 273 | 6.1 | 10.4 | 0.00 | 0.00 | 0.00 | 81 | 1015.4 |
| 20260906153424 | 60 | 295 | 4.3 | 13.0 | 0.00 | 0.00 | 0.00 | 82 | 1015.5 |
| 20260906152927 | 60 | 254 | 5.2 | 13.0 | 0.00 | 0.00 | 0.00 | 82 | 1015.6 |
| 20260906152433 | 60 | 261 | 7.0 | 13.0 | 0.00 | 0.00 | 0.00 | 83 | 1015.6 |
| 20260906151934 | 59 | 251 | 7.0 | 13.0 | 0.00 | 0.00 | 0.00 | 83 | 1015.6 |
| 20260906151443 | 59 | 235 | 5.2 | 11.3 | 0.00 | 0.00 | 0.00 | 83 | 1015.6 |
| 20260906150928 | 59 | 239 | 3.5 | 12.2 | 0.00 | 0.00 | 0.00 | 83 | 1015.6 |
| 20260906150435 | 59 | 284 | 6.1 | 12.2 | 0.00 | 0.00 | 0.00 | 83 | 1015.7 |
| 20260906145919 | 59 | 251 | 5.2 | 13.0 | 0.00 | 0.00 | 0.00 | 84 | 1015.6 |
| 20260906145425 | 59 | 278 | 7.8 | 12.2 | 0.00 | 0.00 | 0.00 | 84 | 1015.5 |
| 20260906144932 | 59 | 247 | 7.0 | 12.2 | 0.00 | 0.00 | 0.00 | 84 | 1015.4 |
| 20260906144434 | 58 | 188 | 6.1 | 10.4 | 0.00 | 0.00 | 0.00 | 84 | 1015.5 |
| 20260906143920 | 58 | 247 | 6.1 | 11.3 | 0.00 | 0.00 | 0.00 | 84 | 1015.5 |
| 20260906143423 | 58 | 237 | 5.2 | 10.4 | 0.00 | 0.00 | 0.00 | 84 | 1015.4 |
| 20260906142927 | 58 | 282 | 4.3 | 10.4 | 0.00 | 0.00 | 0.00 | 84 | 1015.3 |
| 20260906142433 | 58 | 229 | 4.3 | 9.6 | 0.00 | 0.00 | 0.00 | 84 | 1015.3 |
| 20260906141941 | 58 | 190 | 3.5 | 12.2 | 0.00 | 0.00 | 0.00 | 84 | 1015.2 |
| 20260906141424 | 58 | 261 | 7.0 | 12.2 | 0.00 | 0.00 | 0.00 | 84 | 1015.1 |
| 20260906140926 | 58 | 217 | 4.3 | 12.2 | 0.00 | 0.00 | 0.00 | 84 | 1015.0 |
| 20260906140429 | 58 | 273 | 6.1 | 13.0 | 0.00 | 0.00 | 0.00 | 84 | 1014.9 |
| 20260906135934 | 58 | 277 | 3.5 | 13.0 | 0.00 | 0.00 | 0.00 | 84 | 1014.8 |
| 20260906135421 | 58 | 282 | 7.0 | 13.0 | 0.00 | 0.00 | 0.00 | 84 | 1014.8 |
| 20260906134925 | 58 | 273 | 5.2 | 11.3 | 0.00 | 0.00 | 0.00 | 84 | 1014.7 |
| 20260906134429 | 58 | 265 | 6.1 | 13.0 | 0.00 | 0.00 | 0.00 | 84 | 1014.6 |
| 20260906133936 | 58 | 242 | 7.8 | 13.9 | 0.00 | 0.00 | 0.00 | 84 | 1014.6 |
| 20260906133419 | 58 | 252 | 7.8 | 15.6 | 0.00 | 0.00 | 0.00 | 84 | 1014.5 |
| 20260906132926 | 58 | 268 | 8.7 | 15.6 | 0.00 | 0.00 | 0.00 | 84 | 1014.4 |
| 20260906132431 | 58 | 261 | 9.6 | 17.4 | 0.00 | 0.00 | 0.00 | 84 | 1014.4 |
| 20260906131917 | 58 | 229 | 10.4 | 16.5 | 0.00 | 0.00 | 0.00 | 84 | 1014.4 |
| 20260906131422 | 58 | 268 | 8.7 | 15.6 | 0.00 | 0.00 | 0.00 | 84 | 1014.3 |
| 20260906130928 | 58 | 280 | 10.4 | 17.4 | 0.00 | 0.00 | 0.00 | 84 | 1014.4 |
| 20260906130434 | 58 | 301 | 11.3 | 17.4 | 0.00 | 0.00 | 0.00 | 84 | 1014.2 |
| 20260906125920 | 58 | 280 | 9.6 | 16.5 | 0.00 | 0.00 | 0.00 | 84 | 1014.2 |
| 20260906125421 | 58 | 276 | 9.6 | 17.4 | 0.00 | 0.00 | 0.00 | 84 | 1014.2 |
| 20260906124927 | 58 | 282 | 11.3 | 17.4 | 0.00 | 0.00 | 0.00 | 84 | 1014.1 |
| 20260906124434 | 58 | 270 | 8.7 | 16.5 | 0.00 | 0.00 | 0.00 | 84 | 1014.0 |
| 20260906123922 | 58 | 271 | 9.6 | 15.6 | 0.00 | 0.00 | 0.00 | 84 | 1014.0 |
| 20260906123428 | 58 | 264 | 10.4 | 15.6 | 0.00 | 0.00 | 0.00 | 84 | 1014.1 |
| 20260906122932 | 58 | 232 | 8.7 | 16.5 | 0.00 | 0.00 | 0.00 | 84 | 1014.1 |
| 20260906122419 | 58 | 258 | 9.6 | 16.5 | 0.00 | 0.00 | 0.00 | 84 | 1014.1 |
| 20260906121921 | 58 | 270 | 8.7 | 13.9 | 0.00 | 0.00 | 0.00 | 84 | 1014.1 |
| 20260906121427 | 58 | 283 | 6.1 | 12.2 | 0.00 | 0.00 | 0.00 | 84 | 1014.0 |
| 20260906120935 | 58 | 277 | 3.5 | 10.4 | 0.00 | 0.00 | 0.00 | 84 | 1014.2 |
| 20260906120421 | 58 | 268 | 6.1 | 10.4 | 0.00 | 0.00 | 0.00 | 84 | 1014.3 |
| 20260906115947 | 58 | 275 | 2.6 | 8.7 | 0.00 | 0.00 | 0.00 | 84 | 1014.3 |
| 20260906115433 | 59 | 236 | 4.3 | 10.4 | 0.00 | 0.00 | 0.00 | 84 | 1014.3 |
| 20260906114920 | 59 | 249 | 2.6 | 12.2 | 0.00 | 0.00 | 0.00 | 84 | 1014.4 |
| 20260906114420 | 59 | 254 | 7.0 | 12.2 | 0.00 | 0.00 | 0.00 | 84 | 1014.4 |
| 20260906113926 | 59 | 295 | 4.3 | 7.8 | 0.00 | 0.00 | 0.00 | 84 | 1014.4 |
| 20260906113457 | 59 | 183 | 2.6 | 9.6 | 0.00 | 0.00 | 0.00 | 84 | 1014.4 |
| 20260906112919 | 59 | 268 | 4.3 | 9.6 | 0.00 | 0.00 | 0.00 | 84 | 1014.4 |
| 20260906112455 | 59 | 321 | 2.6 | 7.0 | 0.00 | 0.00 | 0.00 | 84 | 1014.3 |
| 20260906111921 | 59 | 251 | 2.6 | 8.7 | 0.00 | 0.00 | 0.00 | 84 | 1014.4 |
| 20260906111429 | 59 | 290 | 3.5 | 10.4 | 0.00 | 0.00 | 0.00 | 84 | 1014.4 |
| 20260906110932 | 59 | 230 | 6.1 | 10.4 | 0.00 | 0.00 | 0.00 | 84 | 1014.4 |
| 20260906110420 | 58 | 213 | 5.2 | 8.7 | 0.00 | 0.00 | 0.00 | 84 | 1014.3 |
| 20260906105924 | 58 | 208 | 2.6 | 9.6 | 0.00 | 0.00 | 0.00 | 84 | 1014.3 |
| 20260906105430 | 58 | 239 | 2.6 | 10.4 | 0.00 | 0.00 | 0.00 | 84 | 1014.3 |
| 20260906104918 | 59 | 226 | 2.6 | 10.4 | 0.00 | 0.00 | 0.00 | 84 | 1014.2 |
| 20260906104426 | 59 | 226 | 3.5 | 7.8 | 0.00 | 0.00 | 0.00 | 84 | 1014.2 |
| 20260906103934 | 59 | 268 | 3.5 | 7.8 | 0.00 | 0.00 | 0.00 | 84 | 1014.3 |
| 20260906103417 | 59 | 251 | 2.6 | 11.3 | 0.00 | 0.00 | 0.00 | 84 | 1014.3 |
| 20260906102919 | 59 | 247 | 5.2 | 11.3 | 0.00 | 0.00 | 0.00 | 84 | 1014.3 |
| 20260906102426 | 59 | 301 | 5.2 | 11.3 | 0.00 | 0.00 | 0.00 | 84 | 1014.2 |
| 20260906101931 | 59 | 252 | 4.3 | 13.9 | 0.00 | 0.00 | 0.00 | 84 | 1014.2 |
| 20260906101417 | 59 | 244 | 6.1 | 13.9 | 0.00 | 0.00 | 0.00 | 84 | 1014.2 |
| 20260906100924 | 59 | 264 | 6.1 | 11.3 | 0.00 | 0.00 | 0.00 | 84 | 1014.1 |
| 20260906100457 | 58 | 237 | 6.1 | 12.2 | 0.00 | 0.00 | 0.00 | 84 | 1014.0 |
| 20260906095922 | 58 | 283 | 7.0 | 15.6 | 0.00 | 0.00 | 0.00 | 84 | 1014.0 |
| 20260906095425 | 58 | 306 | 6.1 | 15.6 | 0.00 | 0.00 | 0.00 | 84 | 1013.8 |
| 20260906094931 | 58 | 211 | 7.0 | 14.8 | 0.00 | 0.00 | 0.00 | 84 | 1013.9 |
| 20260906094416 | 59 | 256 | 7.8 | 14.8 | 0.00 | 0.00 | 0.00 | 84 | 1013.9 |
| 20260906093923 | 59 | 251 | 5.2 | 13.9 | 0.00 | 0.00 | 0.00 | 84 | 1014.0 |
| 20260906093458 | 59 | 256 | 7.0 | 13.9 | 0.00 | 0.00 | 0.00 | 84 | 1014.0 |
| 20260906092928 | 59 | 275 | 5.2 | 13.9 | 0.00 | 0.00 | 0.00 | 84 | 1014.0 |
| 20260906092457 | 59 | 258 | 6.1 | 13.9 | 0.00 | 0.00 | 0.00 | 84 | 1014.0 |
| 20260906091952 | 59 | 282 | 7.8 | 13.0 | 0.00 | 0.00 | 0.00 | 84 | 1014.0 |
| 20260906091417 | 59 | 292 | 6.1 | 14.8 | 0.00 | 0.00 | 0.00 | 84 | 1014.1 |
| 20260906090923 | 59 | 258 | 7.8 | 14.8 | 0.00 | 0.00 | 0.00 | 84 | 1014.1 |
| 20260906090430 | 59 | 273 | 8.7 | 17.4 | 0.00 | 0.00 | 0.00 | 84 | 1014.0 |
| 20260906085934 | 59 | 270 | 7.8 | 17.4 | 0.00 | 0.00 | 0.00 | 84 | 1014.1 |
| 20260906085442 | 59 | 294 | 9.6 | 15.6 | 0.00 | 0.00 | 0.00 | 84 | 1014.2 |
| 20260906084921 | 59 | 228 | 7.8 | 15.6 | 0.00 | 0.00 | 0.00 | 84 | 1014.1 |
| 20260906084427 | 59 | 232 | 7.8 | 20.0 | 0.00 | 0.00 | 0.00 | 84 | 1014.2 |
| 20260906083934 | 59 | 275 | 8.7 | 20.0 | 0.00 | 0.00 | 0.00 | 84 | 1014.1 |
| 20260906083421 | 59 | 251 | 7.0 | 14.8 | 0.00 | 0.00 | 0.00 | 84 | 1014.2 |
| 20260906082927 | 59 | 252 | 7.8 | 16.5 | 0.00 | 0.00 | 0.00 | 84 | 1014.1 |
| 20260906082434 | 59 | 268 | 9.6 | 16.5 | 0.00 | 0.00 | 0.00 | 84 | 1014.1 |
| 20260906081919 | 59 | 284 | 10.4 | 18.2 | 0.00 | 0.00 | 0.00 | 84 | 1014.2 |
| 20260906081425 | 59 | 211 | 10.4 | 18.2 | 0.00 | 0.00 | 0.00 | 84 | 1014.2 |
| 20260906080926 | 59 | 277 | 10.4 | 16.5 | 0.00 | 0.00 | 0.00 | 84 | 1014.3 |
| 20260906080433 | 59 | 256 | 9.6 | 17.4 | 0.00 | 0.00 | 0.00 | 84 | 1014.3 |
| 20260906075918 | 59 | 258 | 10.4 | 20.0 | 0.00 | 0.00 | 0.00 | 84 | 1014.3 |
| 20260906075448 | 59 | 275 | 9.6 | 20.0 | 0.00 | 0.00 | 0.00 | 84 | 1014.2 |
| 20260906074937 | 59 | 268 | 8.7 | 14.8 | 0.00 | 0.00 | 0.00 | 84 | 1014.3 |
| 20260906074444 | 59 | 222 | 8.7 | 14.8 | 0.00 | 0.00 | 0.00 | 84 | 1014.3 |
| 20260906073924 | 59 | 292 | 7.0 | 14.8 | 0.00 | 0.00 | 0.00 | 84 | 1014.3 |
| 20260906073431 | 59 | 273 | 8.7 | 14.8 | 0.00 | 0.00 | 0.00 | 84 | 1014.3 |
| 20260906072937 | 59 | 249 | 7.8 | 15.6 | 0.00 | 0.00 | 0.00 | 84 | 1014.3 |
| 20260906072440 | 59 | 282 | 10.4 | 15.6 | 0.00 | 0.00 | 0.00 | 84 | 1014.4 |
| 20260906071926 | 59 | 270 | 10.4 | 16.5 | 0.00 | 0.00 | 0.00 | 84 | 1014.4 |
| 20260906071433 | 59 | 244 | 8.7 | 16.5 | 0.00 | 0.00 | 0.00 | 84 | 1014.4 |
| 20260906070919 | 59 | 284 | 8.7 | 14.8 | 0.00 | 0.00 | 0.00 | 84 | 1014.5 |
| 20260906070441 | 59 | 280 | 7.8 | 14.8 | 0.00 | 0.00 | 0.00 | 84 | 1014.5 |
| 20260906065941 | 59 | 299 | 8.7 | 15.6 | 0.00 | 0.00 | 0.00 | 84 | 1014.5 |
| 20260906065455 | 59 | 276 | 10.4 | 15.6 | 0.00 | 0.00 | 0.00 | 84 | 1014.5 |
| 20260906064920 | 59 | 359 | 8.7 | 14.8 | 0.00 | 0.00 | 0.00 | 84 | 1014.5 |
| 20260906064424 | 59 | 271 | 7.8 | 13.9 | 0.00 | 0.00 | 0.00 | 83 | 1014.6 |
| 20260906063933 | 60 | 247 | 7.8 | 14.8 | 0.00 | 0.00 | 0.00 | 83 | 1014.5 |
| 20260906063419 | 60 | 270 | 7.0 | 14.8 | 0.00 | 0.00 | 0.00 | 83 | 1014.6 |
| 20260906062920 | 60 | 249 | 7.8 | 13.0 | 0.00 | 0.00 | 0.00 | 83 | 1014.6 |
| 20260906062426 | 60 | 249 | 7.8 | 13.0 | 0.00 | 0.00 | 0.00 | 83 | 1014.6 |
| 20260906061931 | 60 | 264 | 6.1 | 13.0 | 0.00 | 0.00 | 0.00 | 83 | 1014.7 |
| 20260906061419 | 60 | 275 | 6.1 | 13.0 | 0.00 | 0.00 | 0.00 | 83 | 1014.8 |
| 20260906060945 | 60 | 247 | 7.8 | 13.9 | 0.00 | 0.00 | 0.00 | 83 | 1014.8 |
| 20260906060431 | 60 | 257 | 8.7 | 13.9 | 0.00 | 0.00 | 0.00 | 83 | 1014.8 |
| 20260906055931 | 60 | 263 | 6.1 | 15.6 | 0.00 | 0.00 | 0.00 | 83 | 1014.9 |
| 20260906055419 | 60 | 263 | 7.0 | 11.3 | 0.00 | 0.00 | 0.00 | 82 | 1014.8 |
| 20260906054954 | 60 | 264 | 6.1 | 10.4 | 0.00 | 0.00 | 0.00 | 82 | 1014.9 |
| 20260906054419 | 60 | 227 | 5.2 | 11.3 | 0.00 | 0.00 | 0.00 | 82 | 1014.9 |
| 20260906053927 | 60 | 219 | 6.1 | 11.3 | 0.00 | 0.00 | 0.00 | 82 | 1014.9 |
| 20260906053435 | 60 | 280 | 4.3 | 9.6 | 0.00 | 0.00 | 0.00 | 82 | 1015.0 |
| 20260906052920 | 60 | 268 | 4.3 | 8.7 | 0.00 | 0.00 | 0.00 | 81 | 1015.0 |
| 20260906052447 | 60 | 268 | 1.7 | 7.8 | 0.00 | 0.00 | 0.00 | 81 | 1015.1 |
| 20260906051932 | 60 | 226 | 2.6 | 8.7 | 0.00 | 0.00 | 0.00 | 81 | 1015.0 |
| 20260906051420 | 60 | 257 | 4.3 | 8.7 | 0.00 | 0.00 | 0.00 | 81 | 1015.1 |
| 20260906050929 | 60 | 256 | 3.5 | 11.3 | 0.00 | 0.00 | 0.00 | 81 | 1015.1 |
| 20260906050434 | 61 | 240 | 5.2 | 13.0 | 0.00 | 0.00 | 0.00 | 81 | 1015.0 |
| 20260906045917 | 61 | 296 | 4.3 | 13.0 | 0.00 | 0.00 | 0.00 | 80 | 1015.0 |
| 20260906045424 | 61 | 256 | 7.0 | 12.2 | 0.00 | 0.00 | 0.00 | 80 | 1015.0 |
| 20260906044929 | 61 | 264 | 4.3 | 8.7 | 0.00 | 0.00 | 0.00 | 80 | 1015.0 |
| 20260906044431 | 61 | 298 | 3.5 | 8.7 | 0.00 | 0.00 | 0.00 | 80 | 1015.0 |
| 20260906043919 | 61 | 226 | 4.3 | 7.8 | 0.00 | 0.00 | 0.00 | 79 | 1015.0 |
| 20260906043424 | 61 | 222 | 4.3 | 8.7 | 0.00 | 0.00 | 0.00 | 79 | 1014.9 |
| 20260906042930 | 61 | 253 | 5.2 | 8.7 | 0.00 | 0.00 | 0.00 | 80 | 1014.9 |
| 20260906042417 | 61 | 226 | 4.3 | 9.6 | 0.00 | 0.00 | 0.00 | 80 | 1014.8 |
| 20260906041944 | 61 | 285 | 5.2 | 9.6 | 0.00 | 0.00 | 0.00 | 79 | 1014.7 |
| 20260906041443 | 61 | 270 | 6.1 | 12.2 | 0.00 | 0.00 | 0.00 | 79 | 1014.6 |
| 20260906040928 | 61 | 247 | 4.3 | 13.0 | 0.00 | 0.00 | 0.00 | 79 | 1014.6 |
| 20260906040503 | 61 | 292 | 8.7 | 12.2 | 0.00 | 0.00 | 0.00 | 79 | 1014.6 |
| 20260906035918 | 62 | 263 | 6.1 | 12.2 | 0.00 | 0.00 | 0.00 | 78 | 1014.5 |
| 20260906035443 | 62 | 318 | 7.8 | 12.2 | 0.00 | 0.00 | 0.00 | 78 | 1014.5 |
| 20260906034954 | 62 | 268 | 4.3 | 7.8 | 0.00 | 0.00 | 0.00 | 78 | 1014.4 |
| 20260906034436 | 62 | 284 | 4.3 | 8.7 | 0.00 | 0.00 | 0.00 | 78 | 1014.4 |
| 20260906033944 | 62 | 304 | 3.5 | 6.1 | 0.00 | 0.00 | 0.00 | 79 | 1014.2 |
| 20260906033425 | 62 | 301 | 2.6 | 7.8 | 0.00 | 0.00 | 0.00 | 79 | 1014.1 |
| 20260906032930 | 62 | 284 | 3.5 | 7.8 | 0.00 | 0.00 | 0.00 | 79 | 1014.2 |
| 20260906032434 | 62 | 330 | 2.6 | 7.8 | 0.00 | 0.00 | 0.00 | 79 | 1014.2 |
| 20260906031930 | 62 | 19 | 2.6 | 8.7 | 0.00 | 0.00 | 0.00 | 79 | 1014.2 |
| 20260906031431 | 62 | 283 | 3.5 | 11.3 | 0.00 | 0.00 | 0.00 | 79 | 1014.0 |
| 20260906030919 | 62 | 275 | 5.2 | 15.6 | 0.00 | 0.00 | 0.00 | 79 | 1013.9 |
| 20260906030423 | 62 | 322 | 7.0 | 15.6 | 0.00 | 0.00 | 0.00 | 79 | 1013.9 |
| 20260906025930 | 62 | 278 | 6.1 | 10.4 | 0.00 | 0.00 | 0.00 | 79 | 1013.8 |
| 20260906025417 | 62 | 275 | 7.0 | 13.9 | 0.00 | 0.00 | 0.00 | 79 | 1013.8 |
| 20260906024917 | 62 | 278 | 7.8 | 13.9 | 0.00 | 0.00 | 0.00 | 78 | 1013.8 |
| 20260906024438 | 62 | 298 | 6.1 | 13.0 | 0.00 | 0.00 | 0.00 | 78 | 1013.8 |
| 20260906023946 | 63 | 263 | 7.0 | 13.0 | 0.00 | 0.00 | 0.00 | 78 | 1014.0 |
| 20260906023430 | 63 | 270 | 7.0 | 13.0 | 0.00 | 0.00 | 0.00 | 77 | 1014.1 |
| 20260906022936 | 63 | 292 | 5.2 | 11.3 | 0.00 | 0.00 | 0.00 | 77 | 1014.1 |
| 20260906022443 | 63 | 301 | 6.1 | 13.9 | 0.00 | 0.00 | 0.00 | 76 | 1013.9 |
| 20260906021929 | 63 | 275 | 7.0 | 13.9 | 0.00 | 0.00 | 0.00 | 75 | 1013.9 |
| 20260906021416 | 63 | 265 | 7.0 | 20.0 | 0.00 | 0.00 | 0.00 | 75 | 1013.9 |
| 20260906020920 | 63 | 289 | 9.6 | 20.0 | 0.00 | 0.00 | 0.00 | 74 | 1013.9 |
| 20260906020443 | 64 | 277 | 8.7 | 16.5 | 0.00 | 0.00 | 0.00 | 74 | 1013.8 |
| 20260906015954 | 64 | 305 | 8.7 | 15.6 | 0.00 | 0.00 | 0.00 | 74 | 1013.9 |
| 20260906015420 | 64 | 239 | 8.7 | 18.2 | 0.00 | 0.00 | 0.00 | 73 | 1014.0 |
| 20260906014922 | 64 | 291 | 8.7 | 17.4 | 0.00 | 0.00 | 0.00 | 73 | 1014.1 |
| 20260906014429 | 64 | 302 | 8.7 | 18.2 | 0.00 | 0.00 | 0.00 | 73 | 1014.2 |
| 20260906013926 | 64 | 306 | 8.7 | 18.2 | 0.00 | 0.00 | 0.00 | 73 | 1014.1 |
| 20260906013429 | 64 | 292 | 10.4 | 18.2 | 0.00 | 0.00 | 0.00 | 73 | 1014.1 |
| 20260906012934 | 65 | 284 | 9.6 | 17.4 | 0.00 | 0.00 | 0.00 | 72 | 1014.0 |
| 20260906012441 | 64 | 338 | 10.4 | 20.9 | 0.00 | 0.00 | 0.00 | 73 | 1014.0 |
| 20260906011926 | 64 | 283 | 10.4 | 20.9 | 0.00 | 0.00 | 0.00 | 73 | 1014.0 |
| 20260906011432 | 64 | 277 | 13.0 | 22.6 | 0.00 | 0.00 | 0.00 | 73 | 1014.0 |
| 20260906010919 | 65 | 281 | 14.8 | 22.6 | 0.00 | 0.00 | 0.00 | 72 | 1014.0 |
| 20260906010419 | 65 | 282 | 11.3 | 20.9 | 0.00 | 0.00 | 0.00 | 72 | 1014.0 |
| 20260906005921 | 66 | 261 | 12.2 | 20.9 | 0.00 | 0.00 | 0.00 | 71 | 1014.0 |
| 20260906005427 | 66 | 285 | 9.6 | 20.0 | 0.00 | 0.00 | 0.00 | 71 | 1014.1 |
| 20260906004930 | 66 | 276 | 13.0 | 20.0 | 0.00 | 0.00 | 0.00 | 71 | 1014.1 |
| 20260906004433 | 66 | 304 | 10.4 | 18.2 | 0.00 | 0.00 | 0.00 | 71 | 1014.1 |
| 20260906003919 | 66 | 304 | 9.6 | 19.1 | 0.00 | 0.00 | 0.00 | 71 | 1014.2 |
| 20260906003443 | 65 | 265 | 11.3 | 19.1 | 0.00 | 0.00 | 0.00 | 71 | 1014.2 |
| 20260906002925 | 66 | 259 | 10.4 | 18.2 | 0.00 | 0.00 | 0.00 | 70 | 1014.2 |
| 20260906002434 | 67 | 281 | 8.7 | 18.2 | 0.00 | 0.00 | 0.00 | 69 | 1014.2 |
| 20260906001939 | 67 | 270 | 9.6 | 17.4 | 0.00 | 0.00 | 0.00 | 69 | 1014.3 |
| 20260906001456 | 67 | 301 | 8.7 | 17.4 | 0.00 | 0.00 | 0.00 | 69 | 1014.3 |
| 20260906000922 | 67 | 280 | 8.7 | 17.4 | 0.00 | 0.00 | 0.00 | 68 | 1014.3 |
| 20260906000430 | 67 | 294 | 10.4 | 17.4 | 0.00 | 0.00 | 0.00 | 68 | 1014.2 |
| 20260905235930 | 67 | 287 | 11.3 | 18.2 | 0.00 | 0.00 | 0.00 | 68 | 1014.3 |
| 20260905235420 | 67 | 268 | 7.8 | 18.2 | 0.00 | 0.00 | 0.00 | 69 | 1014.3 |
| 20260905234929 | 67 | 280 | 7.8 | 16.5 | 0.00 | 0.00 | 0.00 | 69 | 1014.5 |
| 20260905234435 | 67 | 277 | 8.7 | 15.6 | 0.00 | 0.00 | 0.00 | 69 | 1014.4 |
| 20260905233923 | 66 | 293 | 9.6 | 14.8 | 0.00 | 0.00 | 0.00 | 69 | 1014.5 |
| 20260905233428 | 66 | 303 | 9.6 | 19.1 | 0.00 | 0.00 | 0.00 | 70 | 1014.6 |
| 20260905232931 | 66 | 282 | 11.3 | 19.1 | 0.00 | 0.00 | 0.00 | 70 | 1014.7 |
| 20260905232418 | 66 | 278 | 9.6 | 15.6 | 0.00 | 0.00 | 0.00 | 71 | 1014.7 |
| 20260905231921 | 66 | 289 | 8.7 | 20.0 | 0.00 | 0.00 | 0.00 | 72 | 1014.8 |